TimeCST,TemperatureF,Dew PointF,Humidity,Sea Level PressureIn,VisibilityMPH,Wind Direction,Wind SpeedMPH,Gust SpeedMPH,PrecipitationIn,Events,Conditions,WindDirDegrees,DateUTC
12:53 AM,39.9,21.0,47,29.96,10.0,SSW,6.9,-,N/A,,Clear,210,2014-01-20 06:53:00
1:53 AM,39.0,21.9,50,29.96,10.0,SSW,8.1,-,N/A,,Clear,200,2014-01-20 07:53:00
2:53 AM,45.0,21.9,40,29.95,10.0,SW,5.8,-,N/A,,Clear,220,2014-01-20 08:53:00
3:53 AM,44.1,21.9,42,29.94,10.0,Variable,6.9,-,N/A,,Clear,0,2014-01-20 09:53:00
4:53 AM,39.9,23.0,51,29.94,10.0,SSW,6.9,-,N/A,,Clear,210,2014-01-20 10:53:00
5:53 AM,42.1,23.0,47,29.94,10.0,SSW,3.5,-,N/A,,Clear,200,2014-01-20 11:53:00
6:53 AM,41.0,23.0,49,29.94,10.0,SW,4.6,-,N/A,,Partly Cloudy,230,2014-01-20 12:53:00
7:53 AM,42.1,24.1,49,29.96,10.0,Calm,Calm,-,N/A,,Partly Cloudy,0,2014-01-20 13:53:00
8:53 AM,48.9,24.1,38,29.97,10.0,West,5.8,-,N/A,,Partly Cloudy,270,2014-01-20 14:53:00
9:53 AM,53.1,24.1,32,29.99,10.0,West,10.4,-,N/A,,Partly Cloudy,270,2014-01-20 15:53:00
10:53 AM,54.0,24.1,31,29.97,10.0,SW,5.8,-,N/A,,Clear,220,2014-01-20 16:53:00
11:53 AM,57.0,25.0,29,29.92,10.0,Variable,3.5,-,N/A,,Partly Cloudy,0,2014-01-20 17:53:00
12:53 PM,57.9,25.0,28,29.90,10.0,SW,5.8,-,N/A,,Clear,220,2014-01-20 18:53:00
1:53 PM,62.1,25.0,24,29.87,10.0,SSW,4.6,-,N/A,,Clear,210,2014-01-20 19:53:00
2:53 PM,62.1,25.0,24,29.86,10.0,Variable,5.8,-,N/A,,Clear,0,2014-01-20 20:53:00
3:53 PM,63.0,25.0,24,29.86,10.0,Calm,Calm,-,N/A,,Clear,0,2014-01-20 21:53:00
4:53 PM,59.0,25.0,27,29.86,10.0,NW,3.5,-,N/A,,Partly Cloudy,310,2014-01-20 22:53:00
5:53 PM,53.1,26.1,35,29.86,10.0,Calm,Calm,-,N/A,,Clear,0,2014-01-20 23:53:00
6:53 PM,50.0,27.0,41,29.87,10.0,Calm,Calm,-,N/A,,Clear,0,2014-01-21 00:53:00
7:53 PM,50.0,27.0,41,29.86,10.0,North,3.5,-,N/A,,Clear,350,2014-01-21 01:53:00
8:53 PM,44.1,30.0,58,29.85,10.0,Calm,Calm,-,N/A,,Clear,0,2014-01-21 02:53:00
9:53 PM,44.1,28.9,55,29.85,10.0,NW,4.6,-,N/A,,Partly Cloudy,310,2014-01-21 03:53:00
10:53 PM,45.0,28.9,53,29.85,10.0,NNW,4.6,-,N/A,,Mostly Cloudy,330,2014-01-21 04:53:00
11:53 PM,45.0,28.9,53,29.83,10.0,NW,6.9,-,N/A,,Overcast,320,2014-01-21 05:53:00